Flag for Greenland Weather past 2 weeks in Danmarkshavn, Greenland

Now
35 °F

Passing clouds.


Feels Like: 27 °F
Forecast: 29 / 35 °F
Wind: 12 mph from West

Location: Danmarkshavn

Current Time: Aug 28, 2014 at 3:31:46 AM

Latest Report: Aug 28, 2014 at 2:00 AM


Visibility: 28 mi

Pressure: 29.47 "Hg

Humidity: 84%

Dew point: 31 °F

Location of DanmarkshavnLocation

Historic Weather in Danmarkshavn — Graph

°F

Danmarkshavn temperature yesterday

Maximum temperature yesterday: 36 °F (at 9:00 PM)
Minimum temperature yesterday: 33 °F (at 2:00 PM)
Average temperature yesterday: 35 °F

Past Weeks' High & Low Weather Summary

 TemperatureHumidityPressure
High51 °F (Aug 20, 5:00 PM)100% (Aug 14, 1:00 AM)30.25 "Hg (Aug 14, 1:00 AM)
Low31 °F (Aug 14, 6:00 AM)44% (Aug 18, 4:00 PM)29.47 "Hg (Aug 27, 6:00 PM)
Average40 °F80%29.94 "Hg
* Reported Aug 13 3:00 AM — Aug 28 2:00 AM, Danmarkshavn, Weather by CustomWeather, © 2014

Note: Actual official high and low records may vary slightly from our data, if they occured in-between our weather recording intervals... More about our weather records

Advertising

Danmarkshavn weather history for previous 24 hours

 ConditionsComfort  
Time TempWeatherWind HumidityBarometerVisibility
2:00 AM
Aug 28
35 °FPassing clouds.12 mph84%29.47 "Hg28 mi
1:00 AM36 °FSprinkles. Overcast.23 mph81%29.47 "Hg25 mi
12:00 AM35 °FPassing clouds.17 mph84%29.47 "Hg22 mi
11:00 PM
Aug 27
35 °FPassing clouds.14 mph88%29.50 "Hg25 mi
10:00 PM35 °FScattered clouds.16 mph88%29.50 "Hg25 mi
9:00 PM36 °FOvercast.18 mph82%29.47 "Hg31 mi
8:00 PM35 °FOvercast.17 mph91%29.47 "Hg31 mi
7:00 PM34 °FHeavy snow. Overcast.21 mph94%29.47 "Hg4 mi
6:00 PM35 °FPartly sunny.18 mph90%29.47 "Hg22 mi
5:00 PM35 °FScattered clouds.18 mph90%29.50 "Hg31 mi
4:00 PM34 °FOvercast.20 mph95%29.50 "Hg25 mi
3:00 PM33 °FLow clouds.21 mph98%29.54 "Hg31 mi
2:00 PM33 °FLight snow. Low clouds.23 mph100%29.56 "Hg2 mi
12:00 PM33 °FLight snow. Dense fog.18 mph97%29.58 "Hg2 mi
11:00 AM34 °FFreezing rain. Low clouds.22 mph94%29.58 "Hg3 mi
10:00 AM35 °FLight rain. Overcast.22 mph87%29.58 "Hg2 mi
8:00 AM35 °FLight snow. Overcast.30 mph90%29.59 "Hg1 mi
7:00 AM35 °FSnow flurries. Overcast.35 mph90%29.59 "Hg3 mi
6:00 AM35 °FDrizzle. Overcast.37 mph92%29.59 "Hg15 mi
5:00 AM35 °FDrizzle. Overcast.39 mph93%29.61 "Hg19 mi
4:00 AM35 °FLight snow. Overcast.33 mph96%29.65 "Hg4 mi
3:00 AM34 °FLight snow. Overcast.31 mph96%29.68 "Hg1 mi
Weather by CustomWeather, © 2014

See weather overviewHow to use our weather pages